Regional Weather Roundup
Issued by NWS

Home | Current Version | Previous Version | Graphics & Text | Print | Product List | Glossary On
Versions: 1 2 3 4 5 6 7 8 9 10 11 12 13 14 15 16 17 18 19 20 21 22 23 24 25 26 27
000
ASUS45 KCYS 040510
RWRWY

WYOMING REGIONAL WEATHER ROUNDUP
NATIONAL WEATHER SERVICE CHEYENNE WY
1100 PM MDT TUE MAY 03 2016

NOTE:  "FAIR" INDICATES FEW OR NO CLOUDS BELOW 12,000 FEET
WITH NO SIGNIFICANT WEATHER AND/OR OBSTRUCTIONS TO VISIBILITY.

WYZ001-040600-
YELLOWSTONE NATIONAL PARK

CITY           SKY/WX    TMP DP  RH WIND       PRES   REMARKS
LK YELLOWSTONE   N/A     33  25  72 CALM      30.34R
W YELLOWSTONE  NOT AVBL

$$
WYZ002>013-054>058-071-098>099-040600-
NORTHERN WYOMING

CITY           SKY/WX    TMP DP  RH WIND       PRES   REMARKS
JACKSON        FAIR      39  27  60 NW3       30.26R
CODY           FAIR      52  34  50 S3        30.17S
GREYBULL       FAIR      59  32  36 SE6       30.11R
WORLAND        FAIR      56  37  49 SE10      30.13S
SHERIDAN       FAIR      49  39  68 S3        30.13F
BUFFALO        FAIR      54  35  48 W8        30.20S
GILLETTE       FAIR      44  39  82 S7        30.17S
HULETT         FAIR      52  37  58 SE6       30.17F
NEWCASTLE      FAIR      50  34  53 CALM      30.18R

$$
WYZ014>020-022>026-101>103-040600-
CENTRAL WYOMING

CITY           SKY/WX    TMP DP  RH WIND       PRES   REMARKS
BIG PINEY      FAIR      42  25  50 MISG      30.29R
PINEDALE       CLOUDY    43  27  52 SE6       30.29S
DUBOIS         FAIR      45  28  53 W5        30.30R
LANDER         FAIR      50  35  56 CALM      30.21R
RIVERTON       FAIR      53  36  52 SW7       30.21S
CASPER         FAIR      43  35  73 E5        30.22S
DOUGLAS        FAIR      46  37  71 CALM      30.22S

$$
WYZ021-027>030-104>119-040600-
SOUTHERN WYOMING

CITY           SKY/WX    TMP DP  RH WIND       PRES   REMARKS
EVANSTON       FAIR      54  21  27 S3        30.29R
KEMMERER         N/A     46  21  36 N5        30.30S
FORT BRIDGER   CLEAR     46  27  46 S9        30.31R
ROCK SPRINGS   FAIR      54  22  28 S6        30.27S
DIXON          FAIR      45  32  60 NE7       30.32R
RAWLINS        FAIR      40  32  73 CALM      30.29R
SARATOGA       FAIR      41  30  65 SE5       30.32R
LARAMIE        FAIR      40  31  70 S9        30.32R WCI  34
CHEYENNE       FAIR      45  34  65 NW7       30.27R
TORRINGTON     FAIR      54  37  52 CALM      30.17R
PINE BLUFFS    FAIR      41  36  81 CALM      30.22S

$$




USA.gov is the U.S. government's official web portal to all federal, state and local government web resources and services.